Hourly Data Report for April 24, 2017

OTTAWA INTL A
ONTARIO

45°19'00.000" N
75°40'00.000" W
114.90 m
6106001
71628
YOW

Download Data

Hourly Data (April 2017)
Hourly Data Report for April 24, 2017
TIME
LST
Temp Definition
°C
Dew Point Definition
°C
Rel Hum Definition
%
Precip. Amount Definition
mm

Wind Dir Definition
10's deg

Wind Spd Definition
km/h
Visibility Definition
km
Stn Press Definition
kPa
Hmdx Definition


Wind Chill Definition


Weather Definition


00:00 3.5 -2.3 66   36 22 24.1 100.75     LegendNANA
01:00 2.4 -3.9 63   36 22 24.1 100.79     Mostly Cloudy
02:00 1.5 -4.8 63   35 15 24.1 100.87     LegendNANA
03:00 1.1 -5.0 64   35 21 24.1 100.89     LegendNANA
04:00 0.8 -5.3 64   36 19 24.1 100.96     Mostly Cloudy
05:00 0.4 -5.6 64   36 18 24.1 101.01     LegendNANA
06:00 0.4 -5.8 63   36 17 24.1 101.11     LegendNANA
07:00 1.1 -6.5 57   1 21 24.1 101.19     Mainly Clear
08:00 2.4 -7.0 50   3 14 24.1 101.25     LegendNANA
09:00 4.1 -8.3 40   36 18 24.1 101.27     LegendNANA
10:00 5.0 -7.2 41   5 15 24.1 101.27     Clear
11:00 6.2 -6.1 41   2 9 24.1 101.21     LegendNANA
12:00 8.0 -6.5 35   1 11 24.1 101.20     LegendNANA
13:00 8.9 -7.3 31   2 10 24.1 101.13     Mostly Cloudy
14:00 9.7 -5.4 34   9 14 24.1 101.07     LegendNANA
15:00 10.5 -4.3 35   7 16 24.1 101.01     LegendNANA
16:00 10.7 -5.3 32   7 14 24.1 100.98     Mostly Cloudy
17:00 10.7 -4.9 33   8 15 24.1 100.99     LegendNANA
18:00 9.5 -5.2 35   6 12 24.1 100.96     LegendNANA
19:00 8.0 -3.2 45   5 13 24.1 100.97     Mostly Cloudy
20:00 6.8 -3.7 47   6 12 24.1 101.01     LegendNANA
21:00 6.5 -2.4 53   8 16 24.1 101.01     LegendNANA
22:00 5.6 -4.3 49   7 16 24.1 100.99     Mainly Clear
23:00 4.9 -4.4 51   7 17 24.1 100.99     LegendNANA

Notes on Data Quality.

Legend

  • E = Estimated
  • M = Missing
  • NA = Not Available*
  • [empty] = Indicates an unobserved value
Date modified: